Weather History for KMHS - March, 2013

Change the Weather History Date:

Sunday, March 31, 2013

  Actual Average Record
Temperature  
Mean Temperature 47 °F 44 °F  
Max Temperature 52 °F 58 °F 80 °F (1966)
Min Temperature 42 °F 31 °F 11 °F (1929)
Degree Days  
Heating Degree Days 18 21  
Month to date heating degree days 615 705  
Since 1 July heating degree days 4333 4679  
Cooling Degree Days 0 0  
Month to date cooling degree days 0 0  
Year to date cooling degree days 0 0  
Moisture  
Dew Point 43 °F    
Average Humidity 86    
Maximum Humidity 100    
Minimum Humidity 71    
Precipitation  
Precipitation 0.51 in 0.13 in 2.44 in (1941)
Month to date precipitation 2.89 5.96  
Year to date precipitation 4.74 20.25  
Sea Level Pressure  
Sea Level Pressure 30.06 in    
Wind  
Wind Speed 1 mph (SE)    
Max Wind Speed 8 mph    
Max Gust Speed 18 mph    
Visibility 9 miles    
Events Rain    
T = Trace of Precipitation, MM = Missing Value Source: NWS Daily Summary

Daily Weather History Graph

Daily Weather History Graph

Search for Another Location

Airport or City:

Trip Planner

Search our weather history database for the weather conditions in past years. The results will help you decide how hot, cold, wet, or windy it might be!

Date:

Astronomy

Mar. 31, 2013 Rise Set
Actual Time 6:53 AM PDT 7:33 PM PDT
Civil Twilight 6:25 AM PDT 8:01 PM PDT
Nautical Twilight 5:52 AM PDT 8:34 PM PDT
Astronomical Twilight 5:18 AM PDT 9:08 PM PDT
Moon No Moon Rise 9:43 AM PDT (3/31)
Length of Visible Light 13h 35m
Length of Day
12h 40m
Waning Gibbous, 76% of the Moon is Illuminated
Mar 31
Waning Gibbous
Apr 2
Last Quarter
Apr 10
New
Apr 18
First Quarter
Apr 25
Full

Hourly Weather History & Observations

Time (PDT) Temp. Windchill Dew Point Humidity Pressure Visibility Wind Dir Wind Speed Gust Speed Precip Events Conditions
12:56 AM 51.1 °F - 43.0 °F 74% 30.04 in 10.0 mi Calm Calm - N/A   Overcast
1:56 AM 51.1 °F - 44.1 °F 77% 30.03 in 10.0 mi Calm Calm - N/A   Overcast
2:56 AM 48.9 °F - 46.9 °F 93% 30.03 in 10.0 mi Calm Calm - 0.02 in Rain Light Rain
3:56 AM 48.9 °F - 46.0 °F 90% 29.99 in 10.0 mi Calm Calm - 0.01 in   Overcast
4:56 AM 48.9 °F - 46.9 °F 93% 30.00 in 10.0 mi Calm Calm - 0.00 in Rain Light Rain
5:29 AM 48.2 °F - 46.4 °F 93% 30.01 in 6.0 mi Calm Calm - 0.04 in Rain Light Rain
5:44 AM 48.2 °F - 46.4 °F 93% 30.01 in 6.0 mi Calm Calm - 0.06 in Rain Light Rain
5:56 AM 48.0 °F - 46.0 °F 93% 30.04 in 3.0 mi SSW 3.5 mph - 0.09 in Rain Rain
6:10 AM 46.4 °F 44.3 °F 41.0 °F 81% 30.04 in 2.5 mi Variable 4.6 mph - 0.05 in Rain Rain
6:13 AM 44.6 °F 43.1 °F 41.0 °F 87% 30.04 in 3.0 mi Variable 3.5 mph - 0.06 in Rain Rain
6:56 AM 44.1 °F 42.5 °F 41.0 °F 89% 30.09 in 7.0 mi East 3.5 mph - 0.15 in Rain Rain
7:56 AM 44.1 °F 40.1 °F 39.0 °F 82% 30.09 in 5.0 mi East 6.9 mph - 0.15 in Rain Light Rain
8:56 AM 43.0 °F - 42.1 °F 97% 30.11 in 10.0 mi Calm Calm - 0.04 in Rain Light Rain
9:56 AM 44.1 °F - 42.1 °F 93% 30.11 in 10.0 mi Calm Calm - 0.04 in Rain Light Rain
10:56 AM 45.0 °F - 42.1 °F 90% 30.12 in 10.0 mi Calm Calm - 0.01 in   Overcast
11:56 AM 48.0 °F - 44.1 °F 86% 30.12 in 10.0 mi Calm Calm - N/A   Overcast
12:40 PM 48.2 °F - 44.6 °F 87% 30.09 in 10.0 mi Variable 4.6 mph - N/A   Overcast
12:56 PM 48.9 °F - 42.1 °F 77% 30.12 in 10.0 mi SE 4.6 mph - N/A   Overcast
1:56 PM 50.0 °F - 43.0 °F 77% 30.10 in 10.0 mi Calm Calm - N/A   Overcast
2:17 PM 48.2 °F - 42.8 °F 82% 30.06 in 10.0 mi Calm Calm - N/A   Overcast
2:38 PM 48.2 °F - 42.8 °F 82% 30.05 in 10.0 mi SE 3.5 mph - N/A   Overcast
2:56 PM 50.0 °F - 43.0 °F 77% 30.09 in 10.0 mi Calm Calm - N/A   Overcast
3:56 PM 52.0 °F - 43.0 °F 71% 30.06 in 10.0 mi Calm Calm - N/A   Overcast
4:56 PM 50.0 °F - 42.1 °F 74% 30.06 in 10.0 mi SE 4.6 mph - N/A   Overcast
5:56 PM 48.9 °F - 42.1 °F 77% 30.06 in 10.0 mi SE 3.5 mph - N/A   Overcast
6:56 PM 48.0 °F - 41.0 °F 77% 30.08 in 10.0 mi Calm Calm - N/A   Overcast
7:56 PM 46.0 °F - 39.9 °F 79% 30.07 in 10.0 mi Calm Calm - N/A   Scattered Clouds
8:56 PM 44.1 °F - 41.0 °F 89% 30.09 in 10.0 mi Calm Calm - N/A   Overcast
9:33 PM 44.6 °F - 42.8 °F 93% 30.03 in 10.0 mi Calm Calm - N/A   Overcast
9:52 PM 44.6 °F - 42.8 °F 93% 30.03 in 7.0 mi Calm Calm - N/A   Overcast
9:56 PM 44.1 °F - 43.0 °F 96% 30.09 in 5.0 mi Calm Calm - N/A   Overcast
10:48 PM 44.6 °F - 42.8 °F 93% 30.03 in 10.0 mi Calm Calm - N/A   Scattered Clouds
10:56 PM 43.0 °F - 41.0 °F 93% 30.09 in 10.0 mi Calm Calm - N/A   Scattered Clouds
11:42 PM 42.8 °F - 41.0 °F 93% 30.03 in 10.0 mi Calm Calm - N/A   Mostly Cloudy
11:56 PM 43.0 °F - 39.0 °F 86% 30.08 in 10.0 mi Calm Calm - N/A   Mostly Cloudy